Погода в Калдас-Новас

Бразилия     17°44′44″S   48°37′32″W
темп.,
°C
ветер,
м/с
пор.,
м/с
влажн.,
%
обл.,
%
осадки,
мм/ч
давл.,
гПа
погр.,
м
26 февраля, пт
пт2600:00+20св22900 1.1 101138
03:00+20ссз009550 6.3 100923
06:00+19ссв1294100 1.6 101027
09:00+22ссз018999 4.4 1012228
12:00+26ю338175 4.9 1011577
15:00+24ююв228984 8.6 100987
18:00+21в3692100 1.6 1009190
21:00+20всв1294100 1.6 101156
27 февраля, сб
сб2700:00+19всв269598 0.0 1012184
03:00+19всв129699 0.0 101042
06:00+19св2597100 0.3 1011193
09:00+22св3890100 1.3 1012510
12:00+25св688465 4.9 1012837
15:00+23ссв598975 11.9 1009735
18:00+21св51191100 1.6 1009506
21:00+20св41196100 5.4 1011559
28 февраля, вс
вс2800:00+19св2897100 2.4 1012415
03:00+19св2598100 3.1 1011284
06:00+19всв2897100 0.3 1012383
09:00+21св4891100 0.3 1013670
12:00+24св6983100 1.2 10131055
15:00+24ссв6982100 3.9 10101159
18:00+23ссв2685100 0.3 1009243
21:00+20св389096 0.4 1011270
1 марта, пн
пн100:00+20всв2990100 0.0 1012361
03:00+20всв258996 0.0 1011214
06:00+18св2393100 0.0 101197
09:00+23св478393 0.0 1013819
12:00+25св578377 3.0 1012970
15:00+25св467989 5.1 1010991
18:00+22св2489100 0.6 1009115
21:00+21всв1193100 1.7 101223
2 марта, вт
вт200:00+20всв2293100 1.3 101398
03:00+19всв229596 1.3 101263
06:00+18всв229592 0.0 101333
09:00+22всв588695 0.0 1015724
12:00+26всв467794 0.3 10141115
15:00+27всв467377 2.7 10101135
18:00+24всв378695 1.6 1010308
21:00+21св279398 6.3 1013197